Weather reports worldwide

Advertisment
Donna Nook RAF, United Kingdom (3385): temperature & dewpoint: 17.04.2019 18:00:00 - 23.04.2019 18:00:00 (BST)Donna Nook RAF, United Kingdom (3385): wind speed: 17.04.2019 18:00:00 - 23.04.2019 18:00:00 (BST)Donna Nook RAF, United Kingdom (3385): wind direction: 17.04.2019 18:00:00 - 23.04.2019 18:00:00 (BST)Donna Nook RAF, United Kingdom (3385): reduced air pressure: 17.04.2019 18:00:00 - 23.04.2019 18:00:00 (BST)Donna Nook RAF, United Kingdom (3385): visibility: 17.04.2019 18:00:00 - 23.04.2019 18:00:00 (BST)
Date & Time tt [°C] td [°C] ff [km/h] ff [kn] dd ppp [hPa] vv [km]
23.04.2019 18:00:00 - - - - - - -
23.04.2019 17:00:00 11,2 8,9 28 15 ENE 999,2 10
23.04.2019 16:00:00 11,5 8,8 28 15 ENE 999,6 10
23.04.2019 15:00:00 11,7 8,8 26 14 ENE 1000,1 11
23.04.2019 14:00:00 11,4 8,4 26 14 ENE 1000,5 14
23.04.2019 13:00:00 10,8 8,0 26 14 ENE 1000,7 10
23.04.2019 12:00:00 11,3 8,1 26 14 E 1000,7 13
23.04.2019 11:00:00 11,5 8,0 24 13 E 1000,8 17
23.04.2019 10:00:00 10,9 7,7 31 17 E 1001,0 10
23.04.2019 09:00:00 10,7 7,7 31 17 E 1000,9 16
23.04.2019 08:00:00 10,6 7,8 29 16 E 1001,4 18
23.04.2019 07:00:00 10,4 7,8 24 13 E 1001,2 14
23.04.2019 06:00:00 10,1 7,8 22 12 E 1001,3 19
23.04.2019 05:00:00 10,1 7,8 21 11 E 1001,6 16
23.04.2019 04:00:00 10,1 8,2 18 10 ESE 1001,8 14
23.04.2019 03:00:00 10,3 8,4 18 10 E 1002,3 17
23.04.2019 02:00:00 10,6 8,2 11 6 ESE 1002,6 14
23.04.2019 01:00:00 11,1 8,7 13 7 ESE 1003,1 15
23.04.2019 00:00:00 11,0 8,8 13 7 E 1003,4 12
22.04.2019 23:00:00 10,7 8,7 9 5 E 1003,9 8
22.04.2019 22:00:00 10,7 8,8 13 7 E 1004,2 7
22.04.2019 21:00:00 11,0 8,8 22 12 ENE 1004,5 6
22.04.2019 20:00:00 11,1 8,7 16 9 E 1004,5 5
22.04.2019 19:00:00 12,0 9,0 21 11 E 1004,7 6
22.04.2019 18:00:00 12,7 9,2 24 13 E 1004,7 5
22.04.2019 17:00:00 12,5 9,0 18 10 E 1005,4 5
22.04.2019 16:00:00 13,1 9,2 18 10 E 1006,1 6
22.04.2019 15:00:00 12,9 9,2 16 9 E 1006,7 6
22.04.2019 14:00:00 12,5 9,1 16 9 ENE 1007,4 6
22.04.2019 13:00:00 12,5 9,2 13 7 ENE 1008,1 7
22.04.2019 12:00:00 11,7 9,3 13 7 ENE 1008,8 7
22.04.2019 11:00:00 10,9 9,1 15 8 ENE 1009,3 6
22.04.2019 10:00:00 10,7 8,9 11 6 NE 1009,8 7
22.04.2019 09:00:00 10,0 8,3 16 9 NE 1010,2 7
22.04.2019 08:00:00 9,8 8,0 16 9 NE 1010,6 7
22.04.2019 07:00:00 8,7 7,5 8 4 NE 1010,9 4,7
22.04.2019 06:00:00 7,1 4,8 4 2 NE 1011,1 9
22.04.2019 05:00:00 6,0 4,3 4 2 S 1011,5 6
22.04.2019 04:00:00 6,2 4,7 9 5 S 1012,2 5
22.04.2019 03:00:00 7,0 5,2 15 8 SSE 1012,9 6
22.04.2019 02:00:00 7,8 6,6 15 8 SSE 1013,7 4,2
22.04.2019 01:00:00 9,0 7,6 21 11 SE 1014,3 5
22.04.2019 00:00:00 9,1 7,6 16 9 SE 1014,6 5
21.04.2019 23:00:00 9,8 7,3 18 10 SE 1015,1 9
21.04.2019 22:00:00 10,5 6,7 18 10 ESE 1015,5 11
21.04.2019 21:00:00 10,4 7,0 15 8 ESE 1015,9 10
21.04.2019 20:00:00 11,0 6,7 13 7 ESE 1016,1 10
21.04.2019 19:00:00 12,5 6,9 15 8 ESE 1016,5 12
21.04.2019 18:00:00 13,9 6,7 16 9 ESE 1017,0 14
21.04.2019 17:00:00 14,6 7,7 18 10 ESE 1017,7 13
21.04.2019 16:00:00 15,3 8,2 16 9 E 1018,6 11
21.04.2019 15:00:00 14,6 8,2 16 9 E 1019,4 11
21.04.2019 14:00:00 15,8 7,7 16 9 ESE 1020,2 13
21.04.2019 13:00:00 16,1 6,1 22 12 ESE 1021,1 14
21.04.2019 12:00:00 15,2 8,9 16 9 ESE 1021,8 13
21.04.2019 11:00:00 14,0 10,1 13 7 ESE 1022,5 11
21.04.2019 10:00:00 12,2 10,9 9 5 ESE 1023,2 12
21.04.2019 09:00:00 10,4 10,4 8 4 ESE 1023,7 9
21.04.2019 08:00:00 8,0 8,0 5 3 SE 1024,0 4,3
21.04.2019 07:00:00 6,2 6,1 8 4 SE 1024,4 3,4
21.04.2019 06:00:00 5,7 5,6 5 3 SSE 1024,7 3,3
21.04.2019 05:00:00 6,5 6,4 8 4 S 1025,2 2,8
21.04.2019 04:00:00 6,6 6,6 9 5 S 1025,8 0,9
21.04.2019 03:00:00 5,8 5,7 9 5 SSE 1026,4 0,8
21.04.2019 02:00:00 6,6 6,4 8 4 S 1027,0 1,6
21.04.2019 01:00:00 6,3 6,0 8 4 S 1027,6 0,6
21.04.2019 00:00:00 6,1 5,6 8 4 SSE 1028,2 2,5
20.04.2019 23:00:00 8,2 7,6 9 5 ESE 1028,7 5
20.04.2019 22:00:00 7,7 6,4 8 4 ESE 1029,2 6
20.04.2019 21:00:00 9,0 7,7 8 4 E 1029,3 8
20.04.2019 20:00:00 9,8 7,9 5 3 NE 1029,3 8
20.04.2019 19:00:00 10,7 8,1 5 3 ENE 1029,6 10
20.04.2019 18:00:00 11,2 8,3 8 4 ENE 1029,9 11
20.04.2019 17:00:00 11,9 8,7 13 7 ENE 1030,3 12
20.04.2019 16:00:00 11,8 8,3 13 7 ENE 1030,8 11
20.04.2019 15:00:00 12,0 8,5 13 7 NE 1031,4 10
20.04.2019 14:00:00 12,5 9,1 11 6 NE 1031,8 11
20.04.2019 13:00:00 12,5 9,1 13 7 N 1032,3 10
20.04.2019 12:00:00 11,9 9,1 15 8 NNW 1032,7 10
20.04.2019 11:00:00 11,9 9,8 11 6 NNW 1032,6 11
20.04.2019 10:00:00 9,6 9,6 9 5 NNW 1032,6 10
20.04.2019 09:00:00 7,9 7,9 9 5 WNW 1032,5 0,7
20.04.2019 08:00:00 6,4 6,4 9 5 WNW 1032,7 0,1
20.04.2019 07:00:00 5,4 5,3 9 5 WNW 1032,5 0,1
20.04.2019 06:00:00 2,5 2,3 11 6 W 1032,3 0,1
20.04.2019 05:00:00 3,8 3,5 8 4 NNW 1032,2 0,4
20.04.2019 04:00:00 4,3 3,8 8 4 NW 1032,6 0,3
20.04.2019 03:00:00 4,9 4,0 9 5 NW 1032,6 0,5
20.04.2019 02:00:00 8,2 7,5 9 5 N 1032,5 6
20.04.2019 01:00:00 8,4 7,6 9 5 NNE 1032,7 8
20.04.2019 00:00:00 8,5 7,6 11 6 N 1032,9 7
19.04.2019 23:00:00 8,6 7,7 13 7 N 1032,8 7
19.04.2019 22:00:00 8,9 7,8 15 8 N 1032,8 8
19.04.2019 21:00:00 8,7 7,6 11 6 N 1032,6 9
19.04.2019 20:00:00 9,2 7,7 13 7 NE 1032,0 10
19.04.2019 19:00:00 9,9 8,0 13 7 NNE 1031,6 10
19.04.2019 18:00:00 10,1 8,0 13 7 NNE 1031,6 11
19.04.2019 17:00:00 10,9 8,4 16 9 NNE 1031,5 11
19.04.2019 16:00:00 11,3 8,7 15 8 NNE 1031,7 11
19.04.2019 15:00:00 11,7 9,0 16 9 NNE 1031,8 11
19.04.2019 14:00:00 11,2 8,7 16 9 NNE 1031,7 11
19.04.2019 13:00:00 11,2 8,4 16 9 NNE 1031,6 11
19.04.2019 12:00:00 11,1 8,5 13 7 NNE 1031,5 12
19.04.2019 11:00:00 11,3 8,8 9 5 N 1031,5 12
19.04.2019 10:00:00 10,6 8,3 11 6 NNE 1031,2 9
19.04.2019 09:00:00 10,4 8,5 11 6 N 1030,9 10
19.04.2019 08:00:00 9,9 8,2 15 8 NNE 1030,6 9
19.04.2019 07:00:00 9,2 8,0 16 9 NNE 1030,3 8
19.04.2019 06:00:00 8,5 7,7 18 10 N 1030,0 7
19.04.2019 05:00:00 8,2 7,3 15 8 NNW 1029,8 5
19.04.2019 04:00:00 8,5 7,4 15 8 N 1029,4 6
19.04.2019 03:00:00 8,7 7,6 13 7 N 1029,2 5
19.04.2019 02:00:00 8,0 6,5 9 5 NW 1029,4 5
19.04.2019 01:00:00 9,2 7,6 13 7 NNE 1029,2 8
19.04.2019 00:00:00 8,2 5,7 5 3 S 1029,5 7
18.04.2019 23:00:00 9,7 7,1 16 9 E 1029,1 10
18.04.2019 22:00:00 9,7 7,2 16 9 E 1028,6 10
18.04.2019 21:00:00 9,3 7,4 11 6 E 1028,1 8
18.04.2019 20:00:00 9,7 7,9 13 7 ENE 1027,7 10
18.04.2019 19:00:00 10,1 8,1 18 10 ENE 1027,2 8
18.04.2019 18:00:00 10,0 8,0 21 11 ENE 1026,8 7
18.04.2019 17:00:00 10,5 8,0 18 10 ENE 1026,7 8
18.04.2019 16:00:00 11,0 8,0 22 12 E 1026,8 8
18.04.2019 15:00:00 11,4 8,5 24 13 ENE 1026,7 9
18.04.2019 14:00:00 11,2 8,1 26 14 ENE 1026,7 10
18.04.2019 13:00:00 10,9 7,9 22 12 ENE 1026,6 9
18.04.2019 12:00:00 11,0 8,3 21 11 ENE 1026,7 8
18.04.2019 11:00:00 10,8 8,0 15 8 NE 1026,7 9
18.04.2019 10:00:00 10,5 8,3 13 7 NNE 1026,6 9
18.04.2019 09:00:00 9,9 8,1 18 10 NNE 1026,4 8
18.04.2019 08:00:00 9,6 8,6 11 6 NNE 1025,9 6
18.04.2019 07:00:00 8,9 8,4 16 9 NE 1025,4 3,6
18.04.2019 06:00:00 8,7 8,1 8 4 ENE 1025,0 2,7
18.04.2019 05:00:00 8,5 7,9 13 7 E 1024,8 3,3
18.04.2019 04:00:00 8,3 7,4 11 6 E 1024,8 4,4
18.04.2019 03:00:00 9,0 7,8 11 6 E 1024,6 5
18.04.2019 02:00:00 9,2 7,8 16 9 E 1024,6 6
18.04.2019 01:00:00 9,1 7,6 16 9 ENE 1024,5 6
18.04.2019 00:00:00 9,2 7,7 11 6 ENE 1024,3 6
17.04.2019 23:00:00 9,1 7,7 21 11 ENE 1024,2 5
17.04.2019 22:00:00 9,0 7,6 22 12 ENE 1024,0 4,7
17.04.2019 21:00:00 9,2 7,9 22 12 ENE 1023,6 4,9
17.04.2019 20:00:00 9,2 7,9 24 13 E 1022,9 4,9
17.04.2019 19:00:00 9,6 8,2 26 14 ENE 1022,4 4,7
17.04.2019 18:00:00 10,0 8,4 24 13 ENE 1022,1 4,9

tt = temperature
td = dewpoint
ff = wind speed
dd = wind direction
ppp = reduced air pressure
vv = visibility

Next stations